This is the latest recevied weather packets stored in our database for station/object W7TRD. If no packets are shown the sender has not sent any weather packets the latest 10 day(s).
| Time | Temp. | Humidity | Pressure | Rain* | Wind** | Luminosity | Snow |
|---|---|---|---|---|---|---|---|
| 1777733397 | 11.11° C | 87% | 1017.3 hPa | 0 mm | - | 41 W/m² | - |
| 1777733093 | 11.11° C | 88% | 1017.6 hPa | 0 mm | - | 37 W/m² | - |
| 1777732789 | 11.11° C | 88% | 1017.3 hPa | 0 mm | - | 37 W/m² | - |
| 1777732487 | 10.56° C | 88% | 1017.3 hPa | 0 mm | - | 32 W/m² | - |
| 1777732184 | 10.56° C | 88% | 1017.4 hPa | 0 mm | - | 27 W/m² | - |
| 1777731881 | 10.56° C | 88% | 1017.5 hPa | 0 mm | - | 24 W/m² | - |
| 1777731578 | 10.56° C | 88% | 1017.4 hPa | 0 mm | - | 21 W/m² | - |
| 1777731276 | 10.56° C | 88% | 1017.3 hPa | 0 mm | - | 21 W/m² | - |
| 1777730973 | 10.56° C | 88% | 1017.3 hPa | 0 mm | - | 19 W/m² | - |
| 1777730672 | 10.56° C | 88% | 1017.3 hPa | 0 mm | - | 19 W/m² | - |
| 1777730367 | 10.56° C | 89% | 1017.1 hPa | 0 mm | - | 17 W/m² | - |
| 1777730063 | 10.56° C | 88% | 1017.1 hPa | 0 mm | - | 16 W/m² | - |
| 1777729760 | 10.56° C | 89% | 1017.4 hPa | 0 mm | - | 13 W/m² | - |
| 1777729457 | 10.56° C | 89% | 1017.1 hPa | 0 mm | - | 11 W/m² | - |
| 1777729153 | 10.56° C | 89% | 1016.9 hPa | 0 mm | - | 10 W/m² | - |
| 1777728850 | 10.56° C | 89% | 1016.9 hPa | 0 mm | - | 9 W/m² | - |
| 1777728547 | 10.56° C | 89% | 1017.1 hPa | 0 mm | - | 9 W/m² | - |
| 1777728244 | 10.56° C | 89% | 1017.1 hPa | 0 mm | - | 8 W/m² | - |
| 1777727941 | 10.56° C | 89% | 1017 hPa | 0 mm | - | 7 W/m² | - |
| 1777727638 | 10.56° C | 89% | 1017.1 hPa | 0 mm | - | 4 W/m² | - |
| 1777727335 | 10.56° C | 89% | 1017 hPa | 0 mm | - | 2 W/m² | - |
| 1777727033 | 10.56° C | 90% | 1017 hPa | 0 mm | - | 1 W/m² | - |
| 1777726729 | 10.56° C | 90% | 1016.7 hPa | 0 mm | - | 1 W/m² | - |
| 1777726124 | 10.56° C | 90% | 1016.9 hPa | 0 mm | - | 0 W/m² | - |
| 1777725820 | 10.56° C | 90% | 1016.9 hPa | 0 mm | - | 0 W/m² | - |
* Rain latest hour (hover to see other rain measurements)
** Current wind speed in m/s (hover to see current wind gust speed)